This demonstration page uses our WeatherBlox Daily Observations layout. Learn more.

Left ArrowRight Arrow

30.21309, -93.2044

Hourly Observations for May 7, 2022

Temp ( °F °C ) Dew Point ( °F °C ) Humidity (%) Winds ( mph kmh ) Pressure ( in mb ) Visibility ( mi km ) Precip ( " mm )
12:15 am 00:15 Cloudy with Mist and Fog 72 22.3 71 21.6 96 96 Calm 29.84 1010 1 2 0.00 0.00
12:35 am 00:35 Cloudy with Mist and Fog 73 22.7 72 22 96 96 Calm 29.84 1010 2 3 0.00 0.00
12:55 am 00:55 Mostly Cloudy with Mist and Fog 73 22.5 71 21.6 95 95 Calm 29.84 1010 3 4 0.00 0.00
1:15 am 01:15 Cloudy with Fog 73 22.5 71 21.8 96 96 Calm 29.85 1011 0 0 0.00 0.00
1:35 am 01:35 Cloudy with Fog 70 21.1 69 20.3 95 95 Calm 29.84 1010 0 0 0.00 0.00
1:55 am 01:55 Cloudy with Fog 70 21 69 20.3 96 96 Calm 29.84 1010 0 0 0.00 0.00
2:15 am 02:15 Cloudy with Fog 71 21.4 69 20.7 96 96 Calm 29.84 1010 0 0 0.00 0.00
2:35 am 02:35 Cloudy with Mist and Fog 72 22.1 71 21.5 96 96 NE 3 6 29.84 1010 1 2 0.00 0.00
2:55 am 02:55 Mostly Cloudy with Mist and Fog 71 21.8 70 21.1 96 96 Calm 29.83 1010 2 2 0.00 0.00
3:15 am 03:15 Cloudy with Fog 71 21.4 69 20.7 96 96 ENE 3 6 29.83 1010 1 1 0.00 0.00
3:35 am 03:35 Cloudy with Mist and Fog 72 22 71 21.4 96 96 ENE 5 7 29.83 1010 1 2 0.00 0.00
3:55 am 03:55 Cloudy with Fog 70 21.2 69 20.5 96 96 ENE 3 6 29.83 1010 1 1 0.00 0.00
4:15 am 04:15 Cloudy with Mist and Fog 71 21.5 69 20.8 96 96 ENE 5 7 29.83 1010 1 2 0.00 0.00
4:35 am 04:35 Cloudy with Fog 70 21.1 69 20.4 96 96 Calm 29.84 1010 0 0 0.00 0.00
4:55 am 04:55 Cloudy with Fog 70 21.2 69 20.5 96 96 E 5 7 29.84 1010 0 0 0.00 0.00
5:15 am 05:15 Cloudy with Fog 71 21.7 70 21 96 96 ENE 3 6 29.83 1010 1 1 0.00 0.00
5:35 am 05:35 Cloudy with Fog 70 21.2 69 20.5 96 96 Calm 29.84 1010 1 1 0.00 0.00
6:00 am 06:00 Mostly Cloudy with Fog 70 21 70 21 100 100 Calm 29.84 1010 0 0 0.00 0.00
6:47 am 06:47 Mostly Cloudy with Fog 72 22 70 21 94 94 Calm 29.86 1011 0 0 0.00 0.00
7:51 am 07:51 Mostly Cloudy with Fog 73 23 72 22 94 94 Calm 29.88 1012 0 0 0.00 0.00
8:53 am 08:53 Cloudy with Mist and Fog 73 23 73 23 100 100 Calm 29.89 1012 1 2 0.00 0.00
9:47 am 09:47 Cloudy with Mist and Fog 75 24 73 23 94 94 SE 8 13 29.88 1012 5 8 0.00 0.00
10:47 am 10:47 Mostly Cloudy 81 27 73 23 79 79 SW 5 7 29.88 1012 10 16 0.00 0.00
11:55 am 11:55 Mostly Cloudy 84 29 72 22 66 66 SW 10 17 29.86 1011 10 16 0.00 0.00
12:54 pm 12:54 Mostly Cloudy 84 29 72 22 66 66 SSW 10 17 29.84 1010 10 16 0.00 0.00
1:50 pm 13:50 Mostly Cloudy 86 30 72 22 62 62 SSW 12 19 29.83 1010 10 16 0.00 0.00
2:50 pm 14:50 Mostly Cloudy 86 30 72 22 62 62 SSW 8 13 29.81 1009 10 16 0.00 0.00
3:50 pm 15:50 Partly Cloudy 88 31 72 22 59 59 SSW 8 13 29.79 1009 10 16 0.00 0.00
4:45 pm 16:45 Partly Cloudy 88 31 73 23 62 62 SSW 12 19 29.77 1008 10 16 0.00 0.00
5:55 pm 17:55 Mostly Sunny 86 30 72 22 62 62 SW 9 15 29.77 1008 10 16 0.00 0.00
6:45 pm 18:45 Mostly Sunny 84 29 72 22 66 66 SW 12 19 29.76 1008 10 16 0.00 0.00
7:47 pm 19:47 Mostly Sunny 81 27 72 22 74 74 SSW 8 13 29.77 1008 10 16 0.00 0.00
8:46 pm 20:46 Mostly Clear 79 26 72 22 79 79 S 7 11 29.79 1009 10 16 0.00 0.00
9:55 pm 21:55 Mostly Clear 77 25 72 22 83 83 Calm 29.80 1009 10 16 0.00 0.00
10:15 pm 22:15 Clear 74 23.2 71 21.4 90 90 Calm 29.81 1009 10 16 0.00 0.00
10:35 pm 22:35 Clear 73 22.8 70 21.3 91 91 SSE 3 6 29.81 1009 10 16 0.00 0.00
10:55 pm 22:55 Clear 73 22.6 71 21.4 93 93 SSE 5 7 29.81 1009 10 16 0.00 0.00
11:15 pm 23:15 Clear 73 22.5 70 21.2 92 92 S 6 9 29.80 1009 10 16 0.00 0.00
11:35 pm 23:35 Clear 73 22.8 70 21.3 91 91 S 6 9 29.80 1009 10 16 0.00 0.00
11:55 pm 23:55 Clear 72 22.1 69 20.7 92 92 S 6 9 29.80 1009 10 16 0.00 0.00

Powered by AerisWeather